{"data":{"norad_id":69467,"intl_designator":"2026-127AA","name":"STARLINK-37546","alt_names":[],"object_type":"PAYLOAD","status":"ACTIVE","operator":null,"country":"US","launch_date":"2026-06-08","launch_site_code":"AFETR","launch_vehicle":null,"mission":null,"orbit_class":"UNKNOWN","rcs_meters":null,"size_class":null,"mass_kg":null,"dimensions":null,"purposes":["comms"],"wikipedia_slug":null,"has_3d_model":false,"image_url":null,"decayed_at":null,"tle_current":{"epoch":"2026-09-20T03:04:30.889056Z","epoch_age_seconds":57607,"freshness":"FRESH","line1":"1 69467U 26127AA  26263.12813529  .00021447  00000+0  64429-3 0  9995","line2":"2 69467  53.1592 167.5404 0001595  91.6308 268.4878 15.34389910 16130","mean_motion":15.3438991,"eccentricity":0.0001595,"inclination_deg":53.1592,"raan_deg":167.5404,"arg_perigee_deg":91.6308,"mean_anomaly_deg":268.4878,"bstar":0.00064429,"rev_number":1613,"period_min":93.848375215137,"perigee_km":461.64211117614,"apogee_km":463.8243487795,"semimajor_km":6840.8702299778,"source":"CELESTRAK","updated_at":"2026-09-20T09:00:44.203863Z"}}}